Location: Mountain View
(37.3861°N, 122.0839°W)
Time: 20:22:12
(UTC-07:00)

Envisat - Pass Details

Date: 17 May 2026
Orbit: 761 x 763 km, 98.4° (Epoch: 9 June)

Event Time Altitude Azimuth Distance (km) Brightness Sun altitude
Rises 03:59:12 0° 9° (N) 3,229 7.1 -19.9°
Reaches altitude 10° 04:01:32 10° 6° (N) 2,299 6.2 -19.6°
Maximum altitude 04:06:32 64° 286° (WNW) 842 3.0 -18.9°
Enters shadow 04:08:34 35° 218° (SW) 1,211 3.5 -18.6°
